This demonstration page uses our WeatherBlox Daily Observations layout. Learn more.

Left ArrowRight Arrow

Hourly Observations for November 24, 2021

Temp ( °F °C ) Dew Point ( °F °C ) Humidity (%) Winds ( mph kmh ) Pressure ( in mb ) Visibility ( mi km ) Precip ( " mm )
12:53 am 00:53 Clear 30 -1.1 26 -3.3 85 85 Calm 30.29 1026 10 16 0.00 0.00
1:53 am 01:53 Clear 30 -1.1 26 -3.3 85 85 Calm 30.29 1026 10 16 0.00 0.00
2:53 am 02:53 Clear 29 -1.7 27 -2.8 92 92 Calm 30.31 1026 10 16 0.00 0.00
3:53 am 03:53 Clear 29 -1.7 27 -2.8 92 92 Calm 30.32 1027 10 16 0.00 0.00
4:53 am 04:53 Clear 28 -2.2 26 -3.3 92 92 Calm 30.33 1027 10 16 0.00 0.00
5:53 am 05:53 Clear 28 -2.2 25 -3.9 88 88 Calm 30.35 1028 10 16 0.00 0.00
6:53 am 06:53 Clear 28 -2.2 26 -3.3 92 92 Calm 30.37 1028 10 16 0.00 0.00
7:53 am 07:53 Sunny 29 -1.7 28 -2.2 96 96 Calm 30.39 1029 10 16 0.00 0.00
8:53 am 08:53 Sunny 37 2.8 30 -1.1 76 76 NNE 3 6 30.41 1030 10 16 0.00 0.00
9:53 am 09:53 Sunny 43 6.1 30 -1.1 60 60 Calm 30.42 1030 10 16 0.00 0.00
10:53 am 10:53 Sunny 50 10 30 -1.1 46 46 Calm 30.42 1030 10 16 0.00 0.00
11:53 am 11:53 Sunny 55 12.8 24 -4.4 30 30 S 7 11 30.39 1029 10 16 0.00 0.00
12:53 pm 12:53 Sunny 56 13.3 22 -5.6 27 27 VRB 6 9 30.37 1029 10 16 0.00 0.00
1:53 pm 13:53 Sunny 57 13.9 23 -5 27 27 VRB 3 6 30.35 1028 10 16 0.00 0.00
2:53 pm 14:53 Sunny 58 14.4 22 -5.6 25 25 VRB 6 9 30.34 1027 10 16 0.00 0.00
3:53 pm 15:53 Sunny 58 14.4 22 -5.6 25 25 SSE 6 9 30.33 1027 10 16 0.00 0.00
4:53 pm 16:53 Sunny 58 14.4 23 -5 26 26 SE 7 11 30.33 1027 10 16 0.00 0.00
5:53 pm 17:53 Clear 54 12.2 23 -5 30 30 SE 6 9 30.32 1027 10 16 0.00 0.00
6:53 pm 18:53 Clear 52 11.1 24 -4.4 34 34 ESE 5 7 30.34 1027 10 16 0.00 0.00
7:53 pm 19:53 Clear 43 6.1 31 -0.6 63 63 Calm 30.35 1028 10 16 0.00 0.00
8:53 pm 20:53 Clear 41 5 30 -1.1 65 65 Calm 30.35 1028 8 13 0.00 0.00
9:53 pm 21:53 Clear 38 3.3 29 -1.7 70 70 Calm 30.35 1028 10 16 0.00 0.00
10:53 pm 22:53 Clear 37 2.8 30 -1.1 76 76 Calm 30.35 1028 10 16 0.00 0.00
11:53 pm 23:53 Clear 36 2.2 30 -1.1 79 79 Calm 30.36 1028 10 16 0.00 0.00

Powered by AerisWeather